Wind_Speed
4 16 15 14 16 20 25 30 36 43 50 55 55 58 66 70 71 70 71 71 69 68 67 66 65 66 68 67 67 64 60 54 53 54 53 51 46 46 42 41 40 38 36 34 34 32 28 28 28
11 3 9 19 22 21 21 27 25 30 35 42 48 55 55 61 67 68 67 70 70 70 68 67 66 66 68 67 68 66 65 61 55 53 54 52 51 50 49 47 45 45 45 40 37 37 34 33 31
12 12 9 7 12 25 28 28 31 28 30 33 35 39 44 51 56 64 68 68 67 69 69 69 70 68 68 67 66 66 65 64 63 59 54 56 57 56 56 54 52 49 48 45 41 39 38 36 34
14 13 11 11 9 9 15 23 27 27 30 40 42 43 43 44 48 53 60 66 67 68 68 68 70 70 70 71 70 68 67 66 66 64 61 57 60 63 62 60 60 55 54 50 46 43 41 40 37
15 14 14 14 14 15 14 13 13 16 19 23 26 28 33 44 47 48 50 58 63 66 68 70 70 71 71 70 71 71 70 70 68 67 65 62 60 61 64 60 58 57 56 53 50 48 43 42 40
18 16 14 14 17 20 21 21 21 23 23 22 25 25 24 33 44 49 54 57 58 63 70 72 74 73 73 73 74 72 72 72 73 71 69 66 63 61 58 58 56 56 59 58 56 52 50 45 42
21 22 19 18 17 20 25 27 29 29 28 32 32 29 31 32 32 34 42 51 53 62 66 70 74 77 77 77 76 76 76 74 73 72 69 68 66 64 61 59 58 56 55 56 54 52 53 48 47
27 27 28 26 25 24 24 27 31 34 36 38 40 39 39 39 38 39 41 41 43 53 59 68 73 75 76 81 77 79 78 76 74 74 75 74 72 68 65 63 61 58 57 55 54 51 53 52 49
30 31 32 31 30 32 31 31 33 37 40 43 44 45 47 48 47 46 48 48 47 46 47 56 66 72 75 70 73 77 75 82 80 78 75 75 75 73 69 69 67 64 63 61 61 59 55 53 52
31 36 35 36 41 42 40 40 36 44 41 43 44 46 49 53 56 56 56 55 55 55 53 52 52 60 70 73 72 74 75 66 67 71 73 76 78 75 73 69 70 62 64 63 64 62 62 59 57
35 40 40 42 44 44 43 47 57 55 53 55 55 55 53 52 55 55 60 63 62 61 61 60 59 58 59 62 69 71 70 67 62 59 61 63 64 68 73 75 75 68 59 64 68 66 65 63 62
40 43 45 45 45 55 59 57 62 61 64 69 65 66 64 62 60 59 61 58 59 65 68 68 67 65 63 62 61 64 71 69 56 58 56 53 51 55 61 65 74 81 80 65 61 65 73 69 67
44 47 50 55 58 61 64 65 65 67 69 68 68 69 70 70 69 68 67 68 69 69 69 71 75 73 71 69 67 64 62 69 71 52 50 55 47 41 49 60 64 72 77 81 77 65 65 69 74
50 52 58 59 59 63 68 70 70 69 70 70 72 75 76 75 75 74 73 73 75 75 73 75 74 80 80 78 75 71 68 64 71 74 60 54 56 55 60 62 70 72 71 70 71 71 69 67 67
50 51 56 57 61 66 69 71 74 79 80 80 80 81 81 82 82 82 83 82 80 82 83 81 79 80 85 85 84 80 75 71 67 76 73 70 57 59 63 65 54 64 69 69 68 70 66 67 67
55 56 60 64 69 73 75 76 80 82 85 88 90 89 91 89 90 88 89 89 89 88 85 83 87 86 88 90 90 88 84 79 76 75 78 78 71 60 31 66 52 55 61 62 67 68 69 71 68
55 60 66 71 75 80 81 80 82 87 89 90 93 95 98 99 100 99 98 98 97 96 95 92 89 87 92 94 95 94 90 88 84 80 80 81 83 71 65 53 37 60 55 68 68 68 64 67 68
64 67 75 83 85 92 92 95 95 94 95 95 96 98 101 106 108 108 107 104 103 101 98 96 94 91 93 98 100 99 97 94 91 88 84 84 86 83 75 68 75 67 71 66 62 67 71 74 71
72 76 87 89 95 99 102 102 100 94 94 96 99 102 105 108 109 110 110 107 105 102 100 97 97 97 98 100 103 104 102 101 98 95 92 89 89 89 85 78 74 77 77 68 71 73 69 72 75
76 81 90 94 98 104 97 91 89 87 85 87 91 96 101 106 108 110 111 109 106 104 104 104 103 103 103 105 106 106 108 106 104 102 100 97 94 93 90 85 82 77 79 80 77 75 72 70 72
85 87 93 96 96 97 90 83 78 77 77 79 83 88 92 96 100 105 109 110 108 108 107 109 110 107 110 109 110 112 112 111 111 107 106 104 101 98 98 97 93 90 82 78 84 81 76 69 67
94 98 103 100 98 94 86 80 71 74 75 77 80 84 89 94 97 101 104 106 108 109 108 108 109 112 113 116 115 115 117 117 116 114 111 109 107 105 103 100 97 96 95 90 88 90 85 79 76
104 109 104 110 103 95 91 85 80 84 83 83 84 85 87 88 90 95 100 105 107 109 111 110 111 112 115 119 119 119 121 121 121 119 118 116 113 111 108 105 103 100 97 96 93 92 94 89 89
107 116 118 114 100 93 93 90 87 88 86 86 88 88 90 91 92 94 96 98 101 105 109 111 112 113 114 118 120 121 123 125 125 124 122 121 120 116 114 111 107 105 100 99 100 98 95 99 95
123 123 125 116 106 98 95 93 92 90 87 88 91 92 90 91 93 95 97 99 101 103 105 108 112 114 115 116 118 121 125 127 127 128 128 126 125 124 119 116 114 110 107 103 100 101 101 98 98
125 128 125 119 111 103 100 98 95 93 89 85 82 81 81 83 84 86 88 90 94 98 103 106 111 114 115 117 117 117 120 125 130 129 130 131 131 129 127 124 119 116 113 110 106 103 100 100 100
132 137 129 119 110 103 98 97 98 92 82 77 72 70 71 72 72 74 75 78 82 86 91 97 103 110 114 116 117 118 119 121 124 130 132 133 134 133 131 129 125 122 118 116 114 109 105 102 99
135 138 133 120 112 105 97 98 93 82 76 72 69 65 63 62 63 63 65 70 73 77 81 85 90 96 103 110 115 118 119 122 124 125 130 134 135 137 136 134 130 126 122 120 119 116 112 108 102
144 140 133 121 115 112 98 98 83 77 71 67 63 60 58 57 57 56 57 60 65 67 71 74 78 84 91 98 104 113 118 120 122 126 126 129 135 137 138 138 135 131 127 124 122 119 117 113 108
147 141 132 122 119 111 106 95 81 75 67 62 60 54 52 50 50 52 51 53 55 58 64 66 68 74 80 86 93 100 107 115 121 123 124 125 128 134 137 138 136 135 133 130 125 123 120 117 113
Wind_Direction
22 219 215 237 244 229 253 250 249 247 243 242 239 237 238 238 240 241 241 242 242 244 246 248 246 249 251 252 253 256 255 251 248 249 250 250 250 250 245 249 246 249 249 250 256 257 257 259 263
31 353 258 246 239 247 241 253 265 260 257 252 253 249 244 242 242 242 244 246 246 247 247 246 247 247 249 250 253 254 256 256 253 250 248 249 248 246 244 250 247 252 246 249 251 252 254 256 257
7 7 9 311 263 238 242 249 253 254 259 260 255 252 251 248 247 243 241 242 245 247 247 246 246 246 247 248 250 253 255 256 256 255 250 248 245 247 249 253 248 246 243 245 246 248 252 253 256
340 338 335 333 332 300 269 256 254 258 257 256 260 257 256 253 248 246 245 244 244 245 246 247 248 248 249 249 250 251 253 254 255 256 256 253 247 247 245 251 251 247 244 242 246 246 248 252 252
323 319 319 316 310 302 294 289 285 278 273 273 276 276 266 258 257 252 249 247 246 246 246 248 251 250 251 251 252 253 254 255 255 254 255 254 252 249 248 250 249 247 242 242 247 248 248 251 250
306 300 300 302 295 287 281 279 277 275 278 281 274 273 271 260 255 253 253 248 245 244 242 243 244 245 249 252 251 251 251 254 255 255 255 254 253 251 250 250 246 245 241 241 246 247 248 248 249
291 288 285 282 278 276 271 275 277 278 276 272 272 270 267 265 264 262 258 252 249 244 243 242 243 243 244 248 250 249 247 249 250 251 252 252 251 250 249 246 244 244 246 247 246 244 246 247 246
284 284 283 280 276 275 272 270 270 272 275 276 277 274 269 269 267 264 262 259 256 251 246 243 243 243 245 245 246 250 249 250 250 249 250 251 251 252 250 248 245 243 243 243 246 241 243 243 245
285 286 287 286 287 285 281 281 288 282 275 272 274 272 272 271 267 264 265 264 260 255 254 253 247 245 243 243 243 244 248 251 252 253 250 251 253 254 252 253 251 249 244 244 244 245 242 243 243
282 284 286 285 286 289 290 292 291 298 290 290 285 280 277 275 270 266 262 261 261 261 258 253 252 252 250 247 246 243 242 245 250 253 253 254 254 253 256 256 256 256 248 243 242 241 241 243 243
279 284 286 285 285 291 298 294 297 295 292 289 287 277 274 275 274 274 269 262 260 258 257 256 253 249 248 249 248 244 242 239 245 249 252 254 254 256 255 256 256 254 252 249 243 241 241 239 242
284 288 291 294 293 295 296 294 293 292 289 292 290 288 284 280 277 274 268 266 268 264 258 255 254 252 250 248 247 246 243 238 236 245 243 245 247 250 250 252 253 252 251 250 251 246 243 242 239
292 296 295 295 294 293 292 292 290 289 287 286 285 284 283 283 279 274 269 267 266 266 268 260 253 251 251 249 247 246 242 238 234 229 236 235 232 234 251 249 247 250 249 251 249 250 247 245 242
298 301 299 296 295 296 292 291 290 286 284 281 280 279 277 276 274 271 269 267 266 265 265 262 259 252 249 250 248 245 243 237 232 231 228 234 229 223 224 242 250 247 246 248 251 247 248 247 247
308 311 311 306 306 300 298 295 292 289 284 281 281 279 277 276 273 269 269 269 268 264 262 261 258 255 252 247 246 247 244 240 232 229 229 230 226 228 232 242 246 244 244 242 244 243 242 245 247
311 313 314 309 305 299 292 292 290 288 286 281 280 279 275 273 272 271 268 267 268 267 262 259 256 255 251 248 245 244 244 242 237 229 228 227 227 224 208 247 247 245 240 243 241 241 243 243 244
317 312 313 312 306 309 300 296 295 292 288 281 278 277 275 274 274 272 270 267 265 264 264 258 255 251 249 246 245 244 241 241 238 235 229 227 227 224 223 223 215 236 239 244 236 235 235 236 240
313 315 317 318 317 311 310 307 303 297 291 285 279 276 275 273 271 270 269 267 266 264 262 257 254 250 246 244 243 243 242 239 238 236 234 230 227 225 223 222 219 222 229 231 233 230 233 235 234
324 316 325 318 314 314 313 305 299 295 290 283 278 275 274 273 270 267 266 264 264 262 258 256 252 248 244 243 241 241 241 241 238 236 235 233 228 226 225 222 224 224 225 232 231 231 232 233 237
324 323 323 318 314 313 310 302 296 292 286 281 278 276 274 272 270 267 266 264 261 258 257 253 250 247 243 240 239 238 239 240 239 237 235 234 232 228 219 222 226 226 227 229 225 228 232 234 232
328 325 326 324 318 316 311 304 300 292 285 280 276 273 270 269 269 268 265 263 261 258 254 250 248 245 242 240 239 236 236 236 238 238 237 235 233 231 228 226 227 227 226 226 225 230 229 227 229
330 330 328 326 324 323 319 310 306 298 292 286 279 273 269 267 265 263 261 260 259 257 254 250 246 243 240 239 238 236 233 234 234 236 237 236 235 233 232 231 231 230 231 230 226 228 230 227 224
332 330 331 333 329 325 322 315 311 303 299 295 289 284 279 274 268 263 260 259 257 256 254 252 248 243 240 237 236 235 233 232 233 233 234 236 236 235 234 232 231 232 233 233 230 228 226 228 228
331 337 338 334 331 327 321 316 311 306 302 299 293 289 283 277 272 267 263 259 256 254 252 251 249 247 243 239 237 235 234 233 231 232 232 233 236 235 236 235 234 232 233 234 233 233 231 230 233
335 340 337 335 334 328 322 318 313 309 305 300 294 287 282 277 272 268 264 261 258 255 251 249 248 247 245 242 239 236 234 233 233 232 230 230 233 235 235 236 235 234 233 234 234 234 234 233 234
339 340 337 336 333 329 324 320 316 312 307 299 293 288 283 279 275 271 267 264 260 256 253 249 246 245 243 243 241 238 236 234 233 232 231 229 230 232 235 235 235 235 235 235 237 236 236 234 235
341 339 338 335 332 329 325 321 317 312 308 303 298 292 286 281 276 272 269 264 259 256 253 250 247 244 243 241 240 239 238 236 235 234 232 231 230 230 232 234 235 236 236 235 235 236 236 236 234
340 339 338 335 332 330 327 323 319 316 312 308 302 297 290 285 279 274 268 263 259 256 253 250 248 245 243 241 239 238 237 237 236 234 234 232 232 230 230 231 233 234 235 236 236 236 235 235 235
339 339 337 335 333 330 330 325 323 318 316 311 305 298 295 291 285 278 270 265 263 259 255 250 247 245 243 240 239 237 236 235 235 236 234 233 233 232 231 231 232 233 234 235 236 236 236 237 236
340 338 336 335 333 331 331 328 326 323 318 313 305 305 298 294 287 282 277 269 263 259 257 252 247 244 242 240 238 236 235 233 234 234 234 233 232 233 233 232 233 233 233 234 235 236 236 237 236
Height
10738 10739 10741 10742 10744 10745 10746 10750 10752 10755 10756 10757 10759 10763 10767 10770 10773 10778 10779 10780 10784 10790 10794 10798 10801 10802 10804 10807 10810 10814 10818 10821 10824 10826 10829 10832 10834 10836 10840 10842 10844 10845 10845 10845 10847 10846 10847 10848 10849
10739 10740 10740 10740 10741 10742 10744 10745 10747 10748 10750 10751 10753 10756 10758 10761 10765 10769 10771 10773 10777 10781 10785 10788 10790 10793 10795 10797 10799 10802 10806 10811 10815 10817 10820 10822 10825 10827 10830 10833 10835 10837 10838 10838 10840 10841 10841 10842 10844
10741 10740 10739 10738 10738 10739 10740 10741 10742 10743 10743 10744 10745 10746 10748 10751 10754 10756 10759 10762 10766 10770 10774 10777 10779 10783 10784 10786 10789 10792 10796 10800 10805 10807 10810 10813 10816 10818 10821 10822 10826 10828 10829 10830 10832 10834 10835 10836 10838
10740 10739 10738 10737 10737 10737 10737 10737 10738 10739 10739 10738 10738 10739 10739 10741 10744 10747 10751 10752 10756 10760 10763 10767 10770 10773 10775 10777 10779 10782 10784 10788 10792 10796 10799 10802 10805 10807 10810 10813 10816 10819 10821 10822 10824 10825 10828 10830 10831
10737 10736 10735 10734 10734 10732 10732 10732 10733 10733 10733 10733 10733 10733 10735 10737 10736 10738 10742 10744 10749 10753 10755 10757 10760 10763 10765 10767 10768 10771 10773 10775 10779 10782 10786 10789 10793 10795 10798 10801 10804 10808 10811 10813 10815 10817 10820 10823 10824
10733 10731 10731 10731 10730 10728 10726 10726 10726 10727 10727 10728 10725 10725 10726 10722 10722 10724 10725 10727 10729 10732 10736 10739 10743 10748 10751 10755 10756 10758 10760 10762 10765 10768 10771 10776 10779 10783 10787 10790 10793 10796 10800 10803 10805 10809 10811 10815 10817
10728 10726 10726 10726 10725 10723 10721 10718 10717 10718 10719 10715 10715 10717 10714 10713 10714 10713 10713 10714 10715 10717 10719 10722 10725 10730 10735 10738 10741 10744 10746 10749 10752 10754 10759 10763 10766 10772 10776 10779 10783 10787 10791 10792 10794 10800 10801 10806 10809
10724 10721 10720 10719 10718 10717 10715 10714 10713 10710 10710 10708 10706 10707 10705 10704 10703 10702 10702 10703 10704 10705 10705 10706 10708 10711 10715 10720 10723 10726 10730 10734 10739 10743 10746 10749 10752 10758 10764 10767 10772 10777 10781 10782 10784 10789 10793 10796 10800
10718 10716 10715 10713 10711 10710 10709 10707 10706 10704 10703 10701 10698 10697 10694 10693 10692 10691 10690 10689 10691 10692 10693 10694 10696 10696 10698 10702 10705 10711 10715 10720 10725 10728 10733 10737 10740 10745 10751 10754 10759 10765 10769 10772 10774 10776 10782 10785 10791
10711 10709 10708 10705 10702 10700 10699 10698 10696 10694 10693 10693 10692 10689 10686 10682 10679 10678 10678 10677 10676 10677 10679 10680 10681 10682 10684 10687 10690 10695 10701 10707 10710 10714 10719 10724 10727 10733 10736 10741 10744 10750 10754 10757 10761 10763 10770 10775 10779
10705 10702 10700 10697 10694 10691 10691 10687 10683 10680 10678 10675 10676 10674 10672 10670 10666 10662 10662 10661 10662 10663 10662 10664 10666 10667 10668 10671 10675 10680 10685 10694 10698 10701 10707 10712 10716 10719 10723 10727 10728 10735 10739 10741 10748 10752 10757 10761 10766
10698 10694 10692 10690 10687 10681 10677 10674 10669 10664 10661 10657 10653 10650 10649 10650 10649 10647 10645 10644 10643 10645 10647 10648 10649 10650 10653 10654 10657 10662 10669 10678 10686 10688 10692 10698 10703 10704 10708 10710 10712 10717 10723 10728 10732 10738 10742 10747 10754
10691 10688 10683 10679 10675 10668 10662 10658 10654 10650 10644 10639 10635 10630 10626 10624 10625 10626 10626 10625 10625 10624 10625 10629 10632 10633 10635 10637 10640 10644 10650 10660 10668 10675 10676 10681 10689 10697 10695 10694 10697 10700 10706 10711 10719 10722 10726 10732 10740
10682 10677 10671 10666 10660 10654 10646 10639 10634 10630 10625 10621 10616 10611 10605 10602 10600 10599 10600 10602 10603 10603 10604 10606 10607 10614 10616 10619 10622 10626 10632 10640 10649 10657 10660 10666 10672 10678 10678 10682 10683 10686 10690 10697 10703 10707 10712 10717 10722
10672 10666 10657 10649 10643 10636 10627 10622 10616 10608 10601 10596 10591 10588 10581 10578 10576 10574 10572 10573 10575 10579 10580 10583 10584 10587 10593 10598 10602 10607 10614 10620 10628 10635 10641 10648 10654 10660 10666 10671 10672 10674 10677 10681 10687 10691 10695 10703 10707
10657 10650 10641 10633 10623 10615 10606 10599 10591 10584 10576 10569 10562 10557 10553 10550 10548 10546 10546 10546 10546 10547 10552 10556 10559 10562 10566 10571 10579 10586 10592 10600 10605 10613 10620 10629 10637 10645 10663 10661 10664 10664 10664 10667 10671 10674 10680 10689 10692
10642 10633 10624 10615 10602 10591 10581 10576 10567 10555 10545 10537 10529 10524 10519 10515 10512 10512 10512 10513 10515 10516 10519 10523 10530 10534 10538 10544 10551 10559 10568 10576 10583 10591 10598 10608 10616 10625 10634 10643 10644 10651 10644 10649 10654 10659 10664 10671 10676
10625 10614 10602 10587 10580 10565 10553 10538 10529 10518 10509 10500 10492 10486 10482 10479 10476 10475 10475 10476 10478 10482 10486 10490 10495 10503 10509 10516 10523 10530 10538 10549 10558 10567 10577 10585 10593 10602 10613 10621 10625 10627 10630 10633 10638 10642 10645 10652 10659
10601 10590 10578 10565 10553 10538 10523 10508 10494 10481 10469 10459 10452 10446 10442 10440 10438 10437 10436 10438 10440 10444 10449 10455 10462 10468 10477 10485 10494 10502 10509 10518 10530 10541 10551 10561 10571 10579 10589 10598 10602 10608 10614 10617 10621 10626 10630 10637 10644
10585 10572 10559 10544 10531 10514 10499 10479 10465 10449 10436 10424 10416 10409 10403 10400 10398 10396 10395 10399 10402 10406 10409 10416 10425 10432 10442 10452 10462 10471 10480 10489 10498 10512 10522 10533 10545 10555 10566 10573 10581 10588 10593 10599 10605 10609 10615 10620 10628
10566 10551 10538 10521 10507 10485 10459 10445 10431 10414 10404 10395 10387 10378 10371 10364 10359 10356 10356 10357 10361 10366 10371 10377 10385 10395 10404 10415 10426 10437 10447 10458 10469 10480 10492 10505 10517 10527 10539 10550 10559 10563 10572 10581 10588 10594 10601 10606 10612
10544 10530 10516 10496 10471 10445 10429 10405 10403 10381 10371 10363 10355 10347 10338 10331 10326 10321 10317 10316 10319 10323 10329 10336 10344 10354 10365 10376 10387 10400 10412 10424 10437 10449 10461 10474 10487 10498 10509 10521 10533 10544 10552 10561 10568 10577 10585 10591 10598
10525 10510 10484 10456 10432 10411 10394 10374 10363 10345 10335 10325 10315 10306 10299 10294 10289 10284 10282 10279 10279 10282 10287 10294 10302 10313 10322 10335 10348 10360 10375 10389 10402 10417 10431 10441 10455 10469 10481 10493 10506 10517 10528 10538 10549 10557 10569 10577 10584
10500 10471 10445 10426 10401 10381 10359 10343 10331 10313 10301 10289 10275 10267 10257 10250 10246 10243 10240 10240 10241 10244 10247 10253 10261 10271 10283 10295 10308 10322 10336 10351 10366 10382 10397 10411 10423 10437 10451 10465 10479 10492 10504 10514 10525 10536 10546 10560 10567
10464 10431 10408 10389 10370 10350 10329 10312 10295 10280 10268 10255 10237 10220 10213 10207 10200 10196 10195 10197 10200 10203 10209 10215 10222 10230 10242 10254 10269 10283 10298 10313 10330 10344 10362 10378 10392 10404 10420 10435 10450 10464 10478 10491 10501 10513 10525 10539 10549
10432 10411 10387 10357 10340 10323 10298 10275 10259 10242 10230 10213 10198 10184 10173 10165 10160 10157 10156 10158 10160 10161 10164 10173 10181 10190 10201 10213 10229 10245 10261 10276 10291 10306 10324 10342 10357 10373 10387 10404 10421 10435 10450 10465 10476 10488 10502 10516 10529
10399 10383 10358 10335 10317 10299 10279 10252 10229 10208 10190 10174 10163 10152 10139 10131 10129 10124 10121 10120 10120 10121 10125 10130 10139 10149 10161 10176 10189 10204 10222 10239 10255 10270 10286 10305 10322 10339 10356 10371 10390 10406 10423 10437 10450 10463 10478 10491 10506
10379 10355 10327 10304 10283 10268 10252 10222 10194 10176 10157 10142 10130 10120 10110 10105 10098 10094 10089 10086 10087 10088 10091 10096 10103 10112 10123 10136 10150 10165 10180 10199 10216 10233 10251 10269 10287 10306 10322 10339 10357 10375 10392 10408 10421 10438 10453 10466 10482
10348 10323 10298 10277 10255 10228 10218 10190 10171 10149 10134 10117 10104 10093 10086 10080 10071 10066 10063 10062 10061 10062 10063 10067 10073 10080 10088 10098 10112 10126 10143 10163 10179 10195 10214 10234 10252 10270 10288 10306 10325 10343 10361 10377 10393 10411 10426 10441 10459
10326 10297 10270 10246 10225 10203 10181 10163 10144 10126 10110 10096 10082 10075 10065 10058 10050 10043 10040 10038 10038 10038 10037 10041 10049 10053 10059 10067 10078 10091 10108 10126 10142 10159 10178 10198 10218 10235 10253 10272 10293 10312 10329 10346 10365 10382 10399 10415 10432